Regional Weather Roundup
Issued by NWS

Home | Current Version | Previous Version | Text Only | Print | Product List | Glossary Off
Versions: 1 2 3 4 5 6 7 8 9 10 11 12 13 14 15 16 17 18 19 20 21 22 23 24 25 26 27 28 29 30 31 32 33 34 35 36 37 38 39 40 41 42 43 44 45 46 47 48 49 50

000
ASUS43 KIND 281259
RWRIN

WEATHER ROUNDUP FOR INDIANA
NATIONAL WEATHER SERVICE INDIANAPOLIS IN
900 AM EDT THU JUL 28 2016

NOTE: "FAIR" INDICATES FEW OR NO CLOUDS BELOW 12,000 FEET WITH NO
SIGNIFICANT WEATHER AND/OR OBSTRUCTIONS TO VISIBILITY.

* - STATION DOES NOT REPORT WEATHER SUCH AS PRECIPITATION OR FOG.

+ - STATION NOT QUALITY CONTROLLED BY THE NATIONAL WEATHER SERVICE.
    USE DATA WITH CAUTION...ESPECIALLY DEWPOINT AND RELATIVE
    HUMIDITY OBSERVATIONS.

INZ001>003-010>013-019-020-281400-
NORTHWEST INDIANA

CITY           SKY/WX    TMP DP  RH WIND       PRES   REMARKS
GARY /AIRPORT/ PTSUNNY   75  73  94 CALM      29.92S
KNOX *+        CLOUDY    70  64  83 CALM      29.93R
MONTICELLO +   CLOUDY    73  67  82 CALM      29.92S

$$

LMZ046-743>745-281400-
SOUTHERN LAKE MICHIGAN

STATION/POSITION TIME  TEMP    WIND        PRES    WAVE
                       AIR SEA DIR/SP/G            HT
                 (UTC) (F)     (DEG/KT/KT) (MB)    (FT)
BURNS HARBOR     1202   73      CALM  /  4 1013.5R
MICHIGAN CITY    1200   73     110/  4/  4   N/A
5NW MICH CITY    1200   75 77  140/  4/  4   N/A     0

$$

INZ004-005-014>016-021>024-281400-
NORTH CENTRAL INDIANA

CITY           SKY/WX    TMP DP  RH WIND       PRES   REMARKS
ELKHART        PTSUNNY   73  68  83 CALM      29.94S
GOSHEN         PTSUNNY   73  64  73 CALM      29.94S
SOUTH BEND     MOSUNNY   75  67  76 CALM      29.94R

$$

INZ006>009-017-018-025>027-281400-
NORTHEAST INDIANA

CITY           SKY/WX    TMP DP  RH WIND       PRES   REMARKS
ANGOLA *+      SUNNY     72  63  73 CALM      29.93F
FORT WAYNE     CLOUDY    74  66  76 N3        29.93S

$$

INZ028-029-035-036-043>045-051>053-281400-
WEST CENTRAL INDIANA

CITY           SKY/WX    TMP DP  RH WIND       PRES   REMARKS
CRAWFORDSVL +  PTSUNNY   71  71 100 CALM      29.93R
LAFAYETTE      MOSUNNY   74  71  91 CALM      29.92R
TERRE HAUTE    CLOUDY    76  71  85 S3        29.92R

$$

INZ030>032-037>040-046>048-054>057-064-065-281400-
CENTRAL INDIANA

CITY           SKY/WX    TMP DP  RH WIND       PRES   REMARKS
ANDERSON       PTSUNNY   73  68  83 CALM      29.94
COLUMBUS       MOSUNNY   72  72 100 CALM      29.93R
INDIANAPOLIS   CLOUDY    76  70  82 CALM      29.93R
-EAGLE CREEK   CLOUDY    77  68  73 N5        29.92S
KOKOMO *+      CLOUDY    72  64  78 CALM      29.93S
SHELBYVILLE    CLOUDY    74  70  87 CALM      29.92S

$$

INZ033-034-041-042-049-050-058-059-281400-
EAST CENTRAL INDIANA

CITY           SKY/WX    TMP DP  RH WIND       PRES   REMARKS
MUNCIE         CLOUDY    75  68  78 SW5       29.93S

$$

INZ060-061-067>069-081>083-085>088-281400-
SOUTHWEST INDIANA

CITY           SKY/WX    TMP DP  RH WIND       PRES   REMARKS
EVANSVILLE     CLOUDY    74  72  93 S5        29.92S
HUNTINGBURG *+ CLOUDY    73  70  88 S6        29.93R

$$

INZ062-063-066-070>080-084-089>092-281400-
SOUTH CENTRAL AND SOUTHEAST INDIANA

CITY           SKY/WX    TMP DP  RH WIND       PRES   REMARKS
BLOOMINGTON    CLOUDY    73  70  90 S3        29.93S
MADISON *+     CLOUDY    72  70  94 CALM      29.94S
SEYMOUR +      LGT RAIN  73  73 100 CALM      29.92S

$$




USA.gov is the U.S. government's official web portal to all federal, state and local government web resources and services.